Location: Unspecified
(46.6544°N, 0.0000°E)
Time: 00:18:45
(UTC+00:00)

CZ-4 DEB - Visible Passes

Search period start: 05 April 2026 00:00
Search period end: 15 April 2026 00:00
Orbit: 685 x 802 km, 98.6° (Epoch: 29 March)

Date Brightness Start Highest point End Pass type
(mag) Time Alt. Az. Time Alt. Az. Time Alt. Az.
5 Apr ? 20:17:01 21° SSE 20:20:24 86° ENE 20:25:15 10° NNW visible
5 Apr ? 21:57:33 10° WSW 21:59:32 12° W 22:01:29 10° WNW visible
6 Apr ? 19:33:20 12° SE 19:37:26 36° ENE 19:41:48 10° N visible
6 Apr ? 21:13:04 17° SSW 21:16:00 30° W 21:20:14 10° NW visible
7 Apr ? 20:29:23 21° S 20:32:44 74° WSW 20:37:33 10° NNW visible
8 Apr ? 19:45:41 14° SE 19:49:42 46° ENE 19:54:15 10° N visible
8 Apr ? 21:25:26 14° SW 21:28:26 23° W 21:32:15 10° NW visible
9 Apr ? 20:41:45 19° S 20:45:05 57° WSW 20:49:48 10° NNW visible
10 Apr ? 19:58:03 15° SSE 20:01:59 58° ENE 20:06:39 10° N visible
10 Apr ? 21:37:47 11° SW 21:40:52 18° W 21:44:08 10° NW visible
11 Apr ? 19:15:13 10° ESE 19:19:07 25° ENE 19:22:58 10° N visible
11 Apr ? 20:54:05 18° SSW 20:57:27 44° W 21:01:59 10° NNW visible
12 Apr ? 20:10:24 16° SSE 20:14:16 75° ENE 20:19:01 10° N visible
12 Apr ? 21:50:52 10° WSW 21:53:19 14° W 21:55:45 10° WNW visible
13 Apr ? 19:27:08 10° SE 19:31:20 31° ENE 19:35:28 10° N visible
13 Apr ? 21:06:26 15° SSW 21:09:49 34° W 21:14:07 10° NNW visible
14 Apr ? 20:22:44 16° SSE 20:26:34 85° WSW 20:31:19 10° NNW visible
14 Apr ? 22:05:11 10° W 22:05:48 10° W 22:06:25 10° W visible
